When you browse on this site, cookies collect data to enhance your experience and personalize the content and advertising you see.
Visit our Privacy Policy to learn more. By continuing to use the site, you agree to this use of cookies and data.
  • In Czech Republic
  • List of Countries
  • For 7 days
  • Water Temperature
  • Weather Map
  • Weather Widgets
  • user-avatar
    Login

    Hourly Weather Tibissa

    Today, 19 September, Thursday

    Time Temperature Precipitation Wind Pressure Humidity
    00:00 +23°C° 0 mm 2 mps 687 mmHg 68%
    01:00 +23°C° 0 mm 1 mps 687 mmHg 66%
    02:00 +24°C° 0 mm 1 mps 687 mmHg 63%
    03:00 +24°C° 0 mm 1 mps 687 mmHg 60%
    04:00 +24°C° 0 mm 1 mps 686 mmHg 57%
    05:00 +25°C° 0 mm 2 mps 687 mmHg 56%
    06:00 +25°C° 0 mm 2 mps 687 mmHg 54%
    07:00 +25°C° 0 mm 2 mps 687 mmHg 53%
    08:00 +27°C° 0 mm 3 mps 688 mmHg 47%
    09:00 +28°C° 0 mm 4 mps 688 mmHg 40%
    10:00 +30°C° 0 mm 5 mps 689 mmHg 34%
    11:00 +32°C° 0 mm 6 mps 689 mmHg 31%
    12:00 +33°C° 0 mm 7 mps 689 mmHg 28%
    13:00 +34°C° 0 mm 8 mps 689 mmHg 24%
    14:00 +33°C° 0 mm 8 mps 688 mmHg 25%
    15:00 +32°C° 0 mm 7 mps 688 mmHg 26%
    16:00 +32°C° 0 mm 7 mps 688 mmHg 27%
    17:00 +30°C° 0 mm 5 mps 688 mmHg 30%
    18:00 +29°C° 0 mm 4 mps 688 mmHg 32%
    19:00 +29°C° 0 mm 2 mps 687 mmHg 35%
    20:00 +28°C° 0 mm 3 mps 688 mmHg 37%
    21:00 +27°C° 0 mm 3 mps 688 mmHg 39%
    22:00 +27°C° 0 mm 3 mps 688 mmHg 41%
    23:00 +26°C° 0 mm 2 mps 688 mmHg 43%

    Tomorrow, 20 September, Friday

    Time Temperature Precipitation Wind Pressure Humidity
    00:00 +26°C° 0 mm 2 mps 688 mmHg 44%
    01:00 +26°C° 0 mm 1 mps 688 mmHg 46%
    02:00 +25°C° 0 mm 2 mps 687 mmHg 45%
    03:00 +25°C° 0 mm 2 mps 687 mmHg 45%
    04:00 +25°C° 0 mm 3 mps 686 mmHg 44%
    05:00 +25°C° 0 mm 3 mps 686 mmHg 44%
    06:00 +25°C° 0 mm 4 mps 686 mmHg 44%
    07:00 +25°C° 0 mm 4 mps 686 mmHg 43%
    08:00 +27°C° 0 mm 5 mps 687 mmHg 38%
    09:00 +29°C° 0 mm 7 mps 688 mmHg 32%
    10:00 +32°C° 0 mm 8 mps 689 mmHg 26%
    11:00 +33°C° 0 mm 9 mps 688 mmHg 24%
    12:00 +34°C° 0 mm 9 mps 688 mmHg 22%
    13:00 +35°C° 0 mm 9 mps 688 mmHg 20%
    14:00 +35°C° 0 mm 8 mps 688 mmHg 20%
    15:00 +35°C° 0 mm 8 mps 688 mmHg 20%
    16:00 +35°C° 0 mm 8 mps 688 mmHg 19%
    17:00 +33°C° 0 mm 6 mps 688 mmHg 24%
    18:00 +32°C° 0 mm 4 mps 688 mmHg 29%
    19:00 +29°C° 0 mm 2 mps 688 mmHg 33%
    20:00 +29°C° 0 mm 2 mps 688 mmHg 36%
    21:00 +28°C° 0 mm 1 mps 688 mmHg 38%
    22:00 +28°C° 0 mm 1 mps 688 mmHg 40%
    23:00 +27°C° 0.1 mm 1 mps 688 mmHg 41%

    Day after tomorrow, 21 September, Saturday

    Time Temperature Precipitation Wind Pressure Humidity
    00:00 +27°C° 0.1 mm 1 mps 688 mmHg 41%
    01:00 +26°C° 0.1 mm 1 mps 688 mmHg 42%
    02:00 +26°C° 0 mm 1 mps 687 mmHg 42%
    03:00 +26°C° 0 mm 1 mps 687 mmHg 43%
    04:00 +25°C° 0 mm 1 mps 687 mmHg 43%
    05:00 +25°C° 0.2 mm 1 mps 687 mmHg 44%
    06:00 +25°C° 0.2 mm 1 mps 687 mmHg 44%
    07:00 +25°C° 0.2 mm 2 mps 687 mmHg 45%
    08:00 +27°C° 0 mm 3 mps 688 mmHg 40%
    09:00 +29°C° 0 mm 5 mps 689 mmHg 34%
    10:00 +33°C° 0 mm 6 mps 689 mmHg 29%
    11:00 +33°C° 0 mm 7 mps 689 mmHg 27%
    12:00 +34°C° 0 mm 7 mps 689 mmHg 26%
    13:00 +34°C° 0 mm 8 mps 689 mmHg 25%
    14:00 +34°C° 0 mm 8 mps 689 mmHg 25%
    15:00 +34°C° 0 mm 8 mps 688 mmHg 26%
    16:00 +34°C° 0 mm 8 mps 688 mmHg 26%
    17:00 +33°C° 0 mm 6 mps 688 mmHg 29%
    18:00 +32°C° 0 mm 5 mps 688 mmHg 31%
    19:00 +30°C° 0 mm 3 mps 688 mmHg 34%
    20:00 +29°C° 0 mm 4 mps 688 mmHg 41%
    21:00 +28°C° 0 mm 5 mps 688 mmHg 48%
    22:00 +27°C° 0 mm 5 mps 688 mmHg 55%
    23:00 +26°C° 0 mm 5 mps 688 mmHg 62%

    22 September, Sunday

    Time Temperature Precipitation Wind Pressure Humidity
    00:00 +25°C° 0 mm 5 mps 688 mmHg 70%
    01:00 +23°C° 0 mm 5 mps 687 mmHg 77%
    02:00 +23°C° 0 mm 5 mps 687 mmHg 74%
    03:00 +23°C° 0 mm 5 mps 687 mmHg 71%
    04:00 +22°C° 0 mm 4 mps 686 mmHg 68%
    05:00 +23°C° 0 mm 4 mps 686 mmHg 65%
    06:00 +23°C° 0 mm 5 mps 686 mmHg 62%
    07:00 +23°C° 0 mm 5 mps 687 mmHg 59%
    08:00 +26°C° 0 mm 6 mps 687 mmHg 49%
    09:00 +29°C° 0 mm 8 mps 688 mmHg 39%
    10:00 +32°C° 0 mm 10 mps 688 mmHg 29%
    11:00 +33°C° 0 mm 10 mps 688 mmHg 25%
    12:00 +34°C° 0 mm 11 mps 688 mmHg 22%
    13:00 +36°C° 0 mm 11 mps 688 mmHg 19%
    14:00 +34°C° 0 mm 11 mps 688 mmHg 20%
    15:00 +34°C° 0 mm 10 mps 687 mmHg 22%
    16:00 +34°C° 0 mm 10 mps 687 mmHg 23%
    17:00 +33°C° 0 mm 8 mps 687 mmHg 24%
    18:00 +32°C° 0 mm 6 mps 687 mmHg 26%
    19:00 +30°C° 0 mm 4 mps 687 mmHg 28%
    20:00 +29°C° 0 mm 3 mps 687 mmHg 28%
    21:00 +29°C° 0 mm 3 mps 688 mmHg 28%
    22:00 +29°C° 0 mm 3 mps 688 mmHg 28%
    23:00 +28°C° 0 mm 2 mps 688 mmHg 30%

    23 September, Monday

    Time Temperature Precipitation Wind Pressure Humidity
    00:00 +28°C° 0 mm 2 mps 688 mmHg 31%
    01:00 +28°C° 0 mm 1 mps 688 mmHg 32%
    02:00 +27°C° 0 mm 2 mps 687 mmHg 32%
    03:00 +27°C° 0 mm 2 mps 687 mmHg 32%
    04:00 +27°C° 0 mm 3 mps 687 mmHg 32%
    05:00 +27°C° 0 mm 3 mps 687 mmHg 33%
    06:00 +27°C° 0 mm 3 mps 687 mmHg 33%
    07:00 +27°C° 0 mm 3 mps 687 mmHg 34%
    08:00 +29°C° 0 mm 5 mps 688 mmHg 30%
    09:00 +30°C° 0 mm 7 mps 688 mmHg 26%
    10:00 +33°C° 0 mm 9 mps 689 mmHg 21%
    11:00 +34°C° 0 mm 9 mps 689 mmHg 20%
    12:00 +34°C° 0 mm 8 mps 689 mmHg 19%
    13:00 +35°C° 0 mm 8 mps 689 mmHg 18%
    14:00 +35°C° 0 mm 7 mps 688 mmHg 19%
    15:00 +34°C° 0 mm 6 mps 688 mmHg 21%
    16:00 +34°C° 0 mm 5 mps 687 mmHg 23%
    17:00 +32°C° 0 mm 4 mps 687 mmHg 30%
    18:00 +29°C° 0 mm 3 mps 687 mmHg 36%
    19:00 +28°C° 0 mm 2 mps 687 mmHg 43%
    20:00 +27°C° 0 mm 2 mps 687 mmHg 48%
    21:00 +26°C° 0 mm 2 mps 687 mmHg 53%
    22:00 +25°C° 0 mm 2 mps 688 mmHg 58%
    23:00 +24°C° 0 mm 2 mps 688 mmHg 61%

    24 September, Tuesday

    Time Temperature Precipitation Wind Pressure Humidity
    00:00 +23°C° 0 mm 2 mps 687 mmHg 63%
    01:00 +23°C° 0 mm 1 mps 687 mmHg 66%
    02:00 +22°C° 0 mm 1 mps 687 mmHg 68%
    03:00 +22°C° 0 mm 1 mps 686 mmHg 70%
    04:00 +21°C° 0 mm 1 mps 686 mmHg 72%
    05:00 +21°C° 0 mm 1 mps 686 mmHg 72%
    06:00 +21°C° 0 mm 1 mps 686 mmHg 73%
    07:00 +21°C° 0 mm 1 mps 687 mmHg 73%
    08:00 +21°C° 0 mm 2 mps 687 mmHg 66%
    09:00 +23°C° 0 mm 2 mps 687 mmHg 59%
    10:00 +24°C° 0 mm 2 mps 688 mmHg 52%
    11:00 +25°C° 0 mm 2 mps 688 mmHg 48%
    12:00 +26°C° 0 mm 2 mps 688 mmHg 44%
    13:00 +27°C° 0 mm 2 mps 688 mmHg 40%
    14:00 +28°C° 0 mm 2 mps 688 mmHg 38%
    15:00 +29°C° 0 mm 3 mps 687 mmHg 36%
    16:00 +29°C° 0 mm 3 mps 687 mmHg 34%
    17:00 +28°C° 0 mm 4 mps 687 mmHg 38%
    18:00 +27°C° 0 mm 4 mps 687 mmHg 41%
    19:00 +26°C° 0 mm 4 mps 687 mmHg 45%
    20:00 +25°C° 0 mm 3 mps 687 mmHg 51%
    21:00 +24°C° 0 mm 3 mps 687 mmHg 57%
    22:00 +23°C° 0 mm 2 mps 688 mmHg 64%
    23:00 +23°C° 0 mm 1 mps 687 mmHg 66%
    Show more